SCP
5 5 5 4 4 4 3 3 2 2 2 2 2 2 2 3 3 5 6 4 2 1 1 1 1 1 1 1 2 1 1 1 1 1 1 1 1 1
4 4 4 4 4 4 3 3 3 2 2 2 1 1 2 2 2 4 5 4 2 1 1 1 1 1 1 1 1 1 1 1 1 1 1 1 1 1
3 3 3 3 3 3 3 3 3 2 1 1 1 2 2 2 2 3 4 3 2 1 1 0 0 1 1 1 1 1 1 1 1 1 1 1 1 0
3 3 3 3 3 3 2 2 2 2 1 1 1 2 2 3 3 3 2 2 2 1 1 1 1 1 1 1 1 0 0 0 1 1 1 1 1 1
3 3 3 2 2 2 2 2 2 2 1 1 1 1 2 2 3 3 2 2 2 1 1 1 1 1 1 1 0 0 0 0 0 0 0 1 0 0
3 3 3 3 2 2 2 2 3 2 1 1 1 1 1 2 2 2 2 2 2 2 1 1 1 1 1 0 0 0 0 0 0 0 0 0 0 0
3 3 3 3 2 2 2 2 3 2 2 1 1 1 1 2 2 2 2 2 2 2 2 3 2 2 1 1 0 0 0 0 0 0 0 0 0 0
3 3 3 3 3 2 2 2 2 2 2 1 1 1 2 2 2 2 2 2 2 2 3 3 3 3 2 2 1 0 0 0 0 0 0 0 0 0
3 3 4 4 3 3 2 2 1 1 1 1 1 1 2 2 2 2 2 2 2 3 3 3 4 4 4 3 2 1 0 0 0 0 0 0 0 0
4 4 4 5 4 4 3 2 2 2 1 1 1 1 1 2 2 2 2 2 2 3 3 3 3 4 4 4 3 1 0 0 0 0 0 0 0 0
4 3 3 4 4 4 4 4 3 3 2 1 1 1 1 1 1 1 2 2 2 2 3 3 3 3 4 4 3 2 0 0 0 0 0 0 0 0
3 3 2 3 3 3 3 4 4 3 2 2 2 2 2 1 1 2 2 2 2 2 2 3 3 3 3 3 3 2 1 0 0 0 0 0 0 0
2 2 2 1 1 1 2 4 4 3 3 2 2 2 3 3 2 2 3 3 3 2 3 4 4 3 3 3 3 2 1 0 0 0 0 0 0 0
2 2 1 1 0 0 1 2 2 2 2 2 2 3 3 3 3 3 4 4 4 3 4 4 4 4 3 3 3 3 2 1 1 0 0 0 0 0
2 1 1 0 0 0 1 1 1 1 2 2 2 2 3 3 3 4 4 5 5 4 4 4 4 4 3 3 3 3 3 3 2 1 1 0 0 0
1 1 1 0 0 1 1 1 1 2 2 2 2 2 3 3 3 4 5 5 5 4 4 4 5 5 4 3 3 3 3 3 3 2 1 1 1 0
1 1 1 1 1 1 2 2 3 3 3 3 3 3 3 3 4 4 5 6 5 4 4 4 5 5 5 4 3 3 3 3 2 2 1 1 1 1
1 1 1 1 2 2 3 3 4 4 5 5 4 4 3 4 4 5 5 5 5 4 4 4 5 5 5 4 3 2 2 2 2 1 1 1 1 1
1 1 1 1 2 2 3 3 4 5 6 7 7 6 5 5 4 4 5 5 5 4 4 4 4 5 4 3 3 2 2 2 1 1 1 1 1 1
1 1 1 1 1 2 3 3 3 4 6 9 10 11 10 8 7 5 5 4 4 4 3 3 3 3 3 3 2 2 1 1 1 1 1 1 1 0
2 2 1 1 1 2 3 3 3 3 4 7 10 12 12 11 10 8 7 5 3 3 3 3 3 2 2 2 2 1 1 1 0 0 0 0 0 0
3 3 3 3 3 3 4 4 4 4 4 5 6 8 10 10 10 10 9 7 4 3 3 3 2 2 1 1 1 1 1 1 1 0 0 0 0 0
4 4 5 5 5 5 5 5 5 5 6 6 5 6 7 8 9 10 10 8 5 3 3 3 2 1 1 1 1 1 1 1 1 1 0 0 0 0
Wind_Speed
1 1 1 1 1 1 1 1 1 1 1 1 1 2 2 3 5 3 3 5 5 4 3 2 2 1 1 1 0 1 1 2 2 3 4 4 5 6
1 0 1 2 1 1 1 1 1 1 1 1 1 2 2 3 4 3 4 7 6 5 4 4 3 2 1 1 0 0 1 1 1 1 1 2 3 4
1 0 0 1 1 2 1 1 0 0 1 1 0 1 2 1 2 2 3 4 4 6 6 6 5 4 3 1 1 1 1 1 0 1 1 1 1 2
1 0 1 1 1 1 2 1 1 0 1 1 0 1 1 1 2 2 2 3 3 6 8 7 6 5 4 3 2 1 0 0 0 1 1 1 0 1
1 1 1 1 1 1 1 1 1 1 1 1 1 0 0 0 1 2 2 2 3 5 7 7 7 6 6 5 4 3 2 1 0 0 1 1 1 1
1 1 1 2 2 2 1 1 1 1 0 1 1 1 0 1 0 1 2 1 2 2 3 5 6 7 7 6 5 5 4 3 2 2 1 1 1 2
1 2 1 1 1 1 1 1 1 1 1 1 1 1 0 0 0 1 2 2 2 1 1 3 4 3 4 6 6 5 5 4 4 3 3 2 2 2
2 2 2 2 2 2 2 1 1 1 1 1 1 1 1 1 1 2 1 1 2 1 1 3 2 3 4 4 6 7 7 6 5 5 4 4 4 3
2 3 3 3 3 2 3 4 3 3 3 2 2 2 1 1 1 2 2 2 3 2 2 3 2 2 2 4 10 9 8 7 6 6 5 5 5 5
3 3 4 3 3 2 3 3 3 3 4 4 3 3 2 1 2 3 3 3 2 1 1 2 2 2 1 2 8 10 9 8 7 7 6 6 6 5
3 3 3 3 3 4 3 3 3 3 3 4 4 4 4 4 3 2 2 2 3 2 1 1 2 2 1 2 4 8 9 8 7 7 6 6 6 5
2 2 2 3 4 5 4 3 4 4 3 3 4 5 6 6 6 4 3 3 3 2 1 1 1 1 1 1 2 4 4 6 7 7 7 6 6 3
2 2 2 3 4 5 5 4 5 4 3 4 4 4 4 3 4 4 3 3 3 3 1 1 2 2 2 1 1 3 4 3 4 4 6 7 7 6
2 1 1 2 4 5 5 5 6 4 3 3 3 4 3 3 3 3 4 4 4 4 3 2 2 2 2 2 1 2 3 3 4 4 4 5 7 7
2 2 2 3 4 5 7 7 5 4 4 4 4 4 3 3 3 3 3 3 4 4 4 4 3 2 3 3 2 1 2 2 3 3 3 4 4 4
2 2 3 4 4 4 4 4 4 4 4 4 4 4 3 3 3 3 3 3 3 4 4 4 4 4 4 3 2 2 2 2 2 2 2 2 3 3
2 2 2 2 3 3 3 4 4 4 4 4 4 4 3 3 3 3 3 3 3 4 3 3 3 3 3 2 2 2 1 1 2 2 2 2 2 3
1 3 3 3 3 3 3 4 4 4 4 4 4 4 4 4 3 3 3 3 4 4 3 2 2 2 2 2 2 2 1 1 1 2 2 2 2 2
2 3 3 3 3 3 3 4 4 3 3 3 4 3 3 4 3 3 3 3 3 3 3 2 2 3 3 3 2 3 2 1 1 1 2 2 2 3
4 4 3 3 3 3 3 3 3 2 2 3 3 3 3 3 3 3 3 4 3 3 3 3 3 3 4 3 2 2 4 3 2 2 2 1 1 2
3 3 3 3 2 2 2 3 3 2 2 3 3 2 2 3 3 3 3 4 4 3 3 3 3 4 2 1 2 2 2 5 5 3 3 2 2 3
3 3 3 3 2 2 2 2 3 2 2 3 2 2 2 3 3 3 3 3 3 3 3 2 2 2 2 3 4 3 3 3 4 6 5 4 3 3
2 3 2 2 2 2 2 2 3 2 2 2 2 2 3 3 3 3 3 2 2 2 2 2 2 2 3 3 3 3 4 3 2 2 3 4 6 6
Wind_Direction
273 275 286 294 273 253 227 201 211 265 254 187 142 139 149 141 151 169 159 169 174 175 179 180 169 160 107 130 54 5 332 301 297 260 245 247 245 237
251 319 323 327 332 299 227 223 229 233 265 223 177 159 164 165 169 184 175 173 177 180 182 179 183 184 175 186 172 35 355 327 312 328 275 253 229 222
277 195 264 317 319 326 327 327 268 234 238 289 101 131 117 137 155 199 186 181 176 188 186 187 191 190 184 187 180 105 31 19 354 316 317 296 207 193
214 237 273 284 284 301 322 323 300 227 184 229 318 154 161 164 184 218 202 203 190 195 195 195 193 189 183 187 185 171 169 49 18 359 356 18 73 163
189 194 215 258 275 276 300 305 314 315 154 180 242 207 173 240 213 242 236 230 216 188 195 195 197 195 192 195 192 187 181 169 151 105 34 37 95 134
220 205 220 224 241 249 264 273 289 312 290 211 231 227 184 245 215 245 272 253 247 202 199 196 199 203 199 195 190 184 183 186 191 189 173 136 111 128
238 212 216 209 183 217 260 289 279 262 254 258 248 229 236 176 257 244 249 253 242 215 234 213 191 203 195 188 187 189 190 191 192 195 193 179 167 161
244 229 214 208 199 198 206 243 231 248 272 267 268 262 266 245 259 269 276 282 269 229 228 253 197 197 189 180 186 188 192 191 191 192 194 191 188 187
251 243 245 233 204 201 210 224 229 230 230 241 269 278 268 277 278 283 280 275 257 241 234 252 236 216 202 171 177 183 188 190 191 194 198 198 197 198
236 237 234 239 238 212 225 226 234 236 226 224 236 256 254 261 264 264 271 281 263 245 212 257 269 262 231 169 179 182 187 191 193 196 201 204 203 202
238 245 231 216 214 212 220 231 238 244 239 226 232 242 244 251 259 286 284 287 282 253 201 236 255 277 257 186 186 186 186 190 195 197 201 206 208 201
238 228 206 205 215 206 216 231 241 245 250 245 239 242 240 238 235 225 241 261 274 269 249 252 255 252 263 235 178 178 190 202 203 202 202 207 204 201
244 226 200 202 214 213 217 228 235 247 248 240 240 238 236 233 230 218 218 228 249 255 248 229 258 252 238 251 226 192 186 181 189 204 205 206 200 196
258 218 191 209 219 219 218 232 242 247 247 243 245 242 236 232 230 215 215 221 226 241 243 230 244 240 245 255 247 196 197 185 178 183 186 194 202 209
310 346 287 253 240 227 223 230 234 233 232 238 241 240 235 231 217 215 224 227 234 242 236 224 233 249 244 248 248 217 202 202 184 177 175 176 184 189
272 297 276 255 252 248 237 228 229 235 237 240 248 246 233 228 228 223 226 224 231 241 234 226 228 235 244 248 245 247 216 195 178 168 166 172 178 182
257 255 258 252 240 233 229 228 230 233 237 242 246 247 238 235 233 225 225 232 234 239 233 225 226 225 235 238 242 245 235 199 167 160 158 179 199 190
229 245 245 244 242 241 242 238 233 233 235 240 245 246 241 236 235 227 221 227 234 237 230 215 205 210 241 266 243 238 238 216 192 169 170 189 210 200
228 249 247 249 253 252 254 256 248 236 233 238 243 248 243 235 229 228 227 229 234 235 222 211 214 214 233 244 253 230 226 224 191 185 198 209 218 205
236 248 250 250 254 250 253 261 261 249 235 243 250 250 247 243 237 232 228 230 231 233 224 214 215 215 224 235 239 236 221 215 203 204 205 219 220 199
245 249 257 258 261 250 246 255 255 244 243 250 253 257 258 258 248 242 234 229 233 233 230 224 221 211 211 203 235 233 224 218 211 205 202 210 228 222
248 250 256 261 261 261 262 267 270 262 254 251 251 256 257 257 257 259 251 239 230 231 238 234 196 200 219 221 229 227 229 220 223 226 228 224 215 221
267 270 267 268 262 264 270 267 271 281 278 274 274 269 266 265 266 262 255 246 240 228 215 219 218 218 226 224 225 226 232 227 218 212 241 237 229 229